Voltar ao catálogo

STARLINK-35050

AtivoComunicaçõesSSO
NORAD 65440·PAYLOAD·🇺🇸 United States

Lançado Sep 3, 2025 de Vandenberg Space Force Base

Loading…

Próximas Passagens (próximas 24 horas)

TLE

AtualizadoSource: CelesTrak SupGP

Época: Sep 14, 2026, 20:39 UTC

1 65440C 25194G   26257.86090278  .00025127  00000+0  78045-3 0  2572
2 65440  97.2847 107.6340 0001868  91.7879  24.5688 15.33406668    19

Acompanhe STARLINK-35050 em tempo real com AllMySat

Download on the App Store